星链-35401(STARLINK-35401)

导读 | 豆包AI

STARLINK-35401是美国SpaceX公司星链(Starlink)星座的一员,于2025年10月19日发射升空,运行在近地轨道(LEO)。星链项目旨在构建全球覆盖的卫星互联网星座,为全球尤其是乡村偏远等网络欠发达区域,提供低延迟、高速率的宽带互联网服务。该卫星作为星链组网扩容的组成部分,将助力星座服务能力提升,不过也引发了天文观测和空间碎片等争议。

基本信息
目录编号:
66067
目录名称:
STARLINK-35401
国际标识:
2025-235K
轨道中心:
EARTH
卫星名称:
星链-35401
卫星全名:
星链-35401(STARLINK-35401)
卫星状态:
在轨 (已飞行167 天)
发射日期:
2025-10-19 UTC
国别 :
美国 (US)
星等 :
--
轨道信息
数据来源 国际轨道数据
星历时间: 2026-04-03T17:36:24+0800
22小时前
查看轨道信息
半长轴: 6853.345km
偏心率: 0.0000602
轨道倾角: 53.157°
近地点辐角 100.547°
升交点赤经 130.568°
平近点角 259.560°
近地点: 474.795km
远地点: 475.621km
周期: 94.105分钟
每日圈数: 15.302024
详细信息
固有亮度:
5
最大亮度:
2.5
卫星平台:
Starlink V1.0
覆盖范围:
全球
运营商:
太空探索技术公司
运营商所在国:
美国
制造商(研发单位):
太空探索技术公司
制造商所在国:
美国
使用方式:
暂无
卫星简介
Starlink 计划是 SpaceX 推出的全球卫星互联网项目,通过发射低轨道卫星,为全球尤其是偏远地区提供高速、低延迟的互联网服务。自 2019 年起,Starlink 已部署数千颗卫星,旨在缩小全球数字鸿沟,推动互联网普及。该项目还为军事、航空等行业提供通信支持,带来广泛经济效益。
2D轨道图
3D轨道图
轨道高度分析图
轨道倾角分析图
轨道综合分析图
查看轨道综合分析图